K4XP Weather Reports


time (UTC)temp
C
wind
direction
speed
KPH
gust
KPH
rain 1hr
cm
rain 24hr
cm
rain mn
cm
humidity
%
barometer
mb
20260906044034 23 213 0.0 0.0 0.00 0.05 0.00 90 1012.6
20260906043516 23 214 0.0 0.0 0.00 0.05 0.00 91 1012.6
20260906043018 23 213 0.0 0.0 0.00 0.05 0.00 90 1012.6
20260906042526 23 213 0.0 0.0 0.00 0.05 0.00 90 1012.6
20260906042034 23 214 0.0 0.0 0.00 0.05 0.00 90 1012.6
20260906041517 23 213 0.0 0.0 0.00 0.05 0.00 90 1012.6
20260906041028 23 213 0.0 0.0 0.00 0.05 0.00 90 1012.7
20260906040528 23 214 0.0 0.0 0.00 0.05 0.00 90 1012.7
20260906040018 23 213 0.0 0.0 0.00 0.05 0.00 90 1012.7
20260906035515 23 213 0.0 0.0 0.00 0.05 0.05 90 1012.7
20260906035025 23 214 0.0 0.0 0.00 0.05 0.05 90 1012.6
20260906034527 23 213 0.0 0.0 0.00 0.05 0.05 90 1012.7
20260906034014 23 213 0.0 0.0 0.00 0.05 0.05 90 1012.7
20260906033517 23 213 0.0 0.0 0.00 0.05 0.05 90 1012.7
20260906033025 23 213 0.0 0.0 0.00 0.05 0.05 89 1012.8
20260906032512 23 213 0.0 0.0 0.00 0.05 0.05 89 1012.8
20260906032021 23 214 0.0 0.0 0.00 0.05 0.05 89 1012.9
20260906031525 23 214 0.0 0.0 0.00 0.05 0.05 89 1012.9
20260906031014 23 214 0.0 0.0 0.00 0.05 0.05 89 1013.0
20260906030514 23 213 0.0 0.0 0.00 0.05 0.05 89 1013.1
20260906030023 23 214 0.0 0.0 0.00 0.05 0.05 89 1013.0
20260906025531 23 191 0.0 0.0 0.00 0.05 0.05 89 1013.0
20260906025013 23 191 0.0 0.0 0.00 0.05 0.05 88 1013.1
20260906024521 23 191 0.0 0.0 0.00 0.05 0.05 88 1012.9
20260906024021 24 191 0.0 0.0 0.00 0.05 0.05 88 1012.8
20260906023529 24 191 0.0 0.0 0.00 0.05 0.05 88 1012.9
20260906023012 24 191 0.0 0.0 0.00 0.05 0.05 88 1012.8
20260906022521 24 191 0.0 0.0 0.00 0.05 0.05 88 1012.7
20260906022032 24 191 0.0 0.0 0.00 0.05 0.05 88 1012.8
20260906021514 24 191 0.0 6.4 0.00 0.05 0.05 88 1012.8
20260906021023 24 182 1.6 6.4 0.00 0.05 0.05 89 1012.9
20260906020525 24 194 0.0 3.2 0.00 0.05 0.05 89 1013.0
20260906020016 24 194 0.0 3.2 0.00 0.05 0.05 89 1012.9
20260906015516 24 194 0.0 0.0 0.00 0.05 0.05 90 1012.7
20260906015026 25 194 0.0 0.0 0.00 0.05 0.05 90 1012.6
20260906014529 25 194 0.0 0.0 0.00 0.05 0.05 90 1012.4
20260906014018 25 194 0.0 3.2 0.00 0.05 0.05 90 1012.3
20260906013520 25 194 0.0 3.2 0.00 0.05 0.05 90 1012.3
20260906013029 25 194 0.0 0.0 0.00 0.05 0.05 90 1012.3
20260906012511 25 194 0.0 0.0 0.00 0.05 0.05 90 1012.4
20260906012019 25 194 0.0 0.0 0.00 0.05 0.05 89 1012.4
20260906011521 25 196 0.0 0.0 0.00 0.05 0.05 89 1012.2
20260906011030 25 197 0.0 0.0 0.00 0.05 0.05 89 1012.1
20260906010513 25 67 0.0 0.0 0.00 0.05 0.05 89 1012.1
20260906010023 25 67 0.0 0.0 0.00 0.05 0.05 89 1012.1
20260906005530 25 67 0.0 0.0 0.00 0.05 0.05 88 1012.0
20260906005030 25 67 0.0 0.0 0.00 0.05 0.05 88 1012.0
20260906004511 25 67 0.0 0.0 0.00 0.05 0.05 88 1012.0
20260906004020 25 67 0.0 0.0 0.00 0.05 0.05 88 1012.0
20260906003528 25 67 0.0 0.0 0.00 0.05 0.05 88 1011.8
20260906003013 25 67 0.0 0.0 0.00 0.05 0.05 88 1011.9
20260906002521 25 67 0.0 0.0 0.00 0.05 0.05 87 1011.9
20260906002023 25 234 0.0 0.0 0.00 0.05 0.05 87 1011.8
20260906001531 25 234 0.0 0.0 0.00 0.05 0.05 87 1011.7
20260906001012 25 234 0.0 0.0 0.00 0.05 0.05 87 1011.6
20260906000519 25 234 0.0 0.0 0.00 0.05 0.05 86 1011.7
20260906000023 25 234 0.0 0.0 0.00 0.05 0.05 86 1011.6
20260905235511 25 234 0.0 3.2 0.00 0.05 0.05 86 1011.6
20260905235015 25 234 0.0 3.2 0.00 0.05 0.05 86 1011.5
20260905234523 25 234 0.0 0.0 0.00 0.05 0.05 85 1011.6
20260905234027 25 234 0.0 0.0 0.00 0.05 0.05 85 1011.4
20260905233517 26 234 0.0 0.0 0.00 0.05 0.05 85 1011.4
20260905233023 26 234 0.0 0.0 0.00 0.05 0.05 84 1011.5
20260905232514 26 234 0.0 0.0 0.00 0.05 0.05 84 1011.5
20260905232015 26 234 0.0 0.0 0.00 0.05 0.05 84 1011.6
20260905231523 26 234 0.0 0.0 0.00 0.05 0.05 83 1011.5
20260905231031 26 234 0.0 0.0 0.00 0.05 0.05 83 1011.4
20260905230514 26 242 0.0 0.0 0.00 0.05 0.05 82 1011.4
20260905230015 26 230 0.0 0.0 0.00 0.05 0.05 82 1011.6
20260905225524 26 226 0.0 0.0 0.00 0.05 0.05 82 1011.5
20260905225036 26 261 0.0 0.0 0.00 0.05 0.05 81 1011.4
20260905224519 26 248 0.0 0.0 0.00 0.05 0.05 81 1011.4
20260905224028 26 227 0.0 0.0 0.00 0.05 0.05 81 1011.6
20260905223530 26 238 0.0 0.0 0.00 0.05 0.05 80 1011.5
20260905223018 26 209 0.0 0.0 0.00 0.05 0.05 81 1011.3
20260905222518 26 212 0.0 0.0 0.00 0.05 0.05 82 1011.3
20260905222028 26 242 0.0 0.0 0.00 0.05 0.05 82 1011.3
20260905221529 26 217 0.0 0.0 0.00 0.05 0.05 82 1011.3
20260905221018 26 260 0.0 0.0 0.00 0.05 0.05 82 1011.3
20260905220520 26 239 0.0 0.0 0.00 0.05 0.05 82 1011.3
20260905220029 26 252 0.0 0.0 0.00 0.05 0.05 83 1011.5
20260905215536 26 242 0.0 0.0 0.00 0.05 0.05 83 1011.6
20260905215017 26 269 0.0 0.0 0.00 0.05 0.05 83 1011.7
20260905214519 26 250 0.0 0.0 0.00 0.05 0.05 83 1011.8
20260905214028 26 257 0.0 0.0 0.00 0.05 0.05 82 1011.8
20260905213537 26 271 0.0 0.0 0.00 0.05 0.05 82 1011.8
20260905213020 26 272 0.0 0.0 0.00 0.05 0.05 82 1011.9
20260905212530 26 241 0.0 0.0 0.00 0.05 0.05 82 1012.1
20260905212013 26 225 0.0 0.0 0.00 0.05 0.05 82 1012.1
20260905211521 26 279 0.0 0.0 0.00 0.05 0.05 83 1012.1
20260905211023 26 59 0.0 0.0 0.00 0.05 0.05 83 1012.1
20260905210530 25 134 0.0 1.6 0.00 0.05 0.05 84 1012.1
20260905210012 25 39 0.0 3.2 0.00 0.05 0.05 83 1012.1
20260905205520 25 63 0.0 3.2 0.00 0.05 0.05 83 1012.0
20260905205022 25 32 0.0 0.0 0.00 0.05 0.05 83 1012.0
20260905204512 25 355 0.0 8.0 0.00 0.05 0.05 84 1012.0
20260905204016 25 27 0.0 16.1 0.00 0.05 0.05 85 1012.3
20260905203525 25 78 0.0 16.1 0.03 0.05 0.05 85 1012.4
20260905203029 25 110 4.8 11.3 0.05 0.05 0.05 85 1012.4
20260905202517 25 26 0.0 3.2 0.05 0.05 0.05 85 1012.6
20260905202018 25 20 0.0 3.2 0.05 0.05 0.05 85 1012.5
20260905201528 25 26 0.0 3.2 0.05 0.05 0.05 84 1012.6
20260905201011 25 13 0.0 1.6 0.05 0.05 0.05 84 1012.5
20260905200519 25 22 0.0 0.0 0.05 0.05 0.05 83 1011.9
20260905200030 25 5 0.0 3.2 0.05 0.05 0.05 81 1011.9
20260905195530 26 211 0.0 3.2 0.05 0.05 0.05 79 1011.9
20260905195012 26 145 0.0 0.0 0.05 0.05 0.05 76 1011.9
20260905194521 26 121 0.0 1.6 0.05 0.05 0.05 76 1011.7
20260905194029 27 76 0.0 11.3 0.05 0.05 0.05 74 1012.2
20260905193514 27 69 3.2 19.3 0.03 0.03 0.03 73 1012.8
20260905193024 28 96 0.0 1.6 0.00 0.00 0.00 73 1013.2
20260905192524 28 76 0.0 3.2 0.00 0.00 0.00 69 1013.0
20260905192014 30 59 0.0 8.0 0.00 0.00 0.00 66 1012.9
20260905191516 30 322 0.0 8.0 0.00 0.00 0.00 64 1013.0
20260905191022 31 42 0.0 4.8 0.00 0.00 0.00 61 1012.7
20260905190525 33 9 0.0 0.0 0.00 0.00 0.00 61 1012.1
20260905190031 33 237 0.0 0.0 0.00 0.00 0.00 59 1011.9
20260905185514 33 237 0.0 0.0 0.00 0.00 0.00 59 1012.2
20260905185024 33 237 0.0 0.0 0.00 0.00 0.00 58 1012.3
20260905184532 33 237 0.0 0.0 0.00 0.00 0.00 58 1012.2
20260905184011 34 237 0.0 0.0 0.00 0.00 0.00 58 1012.1
20260905183514 34 238 0.0 0.0 0.00 0.00 0.00 56 1012.0
20260905183025 34 236 0.0 0.0 0.00 0.00 0.00 55 1012.1
20260905182532 35 238 0.0 0.0 0.00 0.00 0.00 54 1012.1
20260905182014 35 252 0.0 0.0 0.00 0.00 0.00 51 1011.9
20260905181523 35 198 0.0 0.0 0.00 0.00 0.00 52 1012.0
20260905181025 35 184 0.0 4.8 0.00 0.00 0.00 52 1012.1
20260905180513 35 176 0.0 6.4 0.00 0.00 0.00 54 1012.3
20260905180015 35 205 0.0 0.0 0.00 0.00 0.00 54 1012.2
20260905175522 35 205 0.0 0.0 0.00 0.00 0.00 55 1012.4
20260905175024 35 213 0.0 0.0 0.00 0.00 0.00 54 1012.5
20260905174513 35 230 0.0 3.2 0.00 0.00 0.00 55 1012.5
20260905174016 35 182 0.0 3.2 0.00 0.00 0.00 56 1012.6
20260905173523 35 204 0.0 0.0 0.00 0.00 0.00 54 1012.7
20260905173032 35 257 0.0 0.0 0.00 0.00 0.00 55 1012.8
20260905172512 34 246 0.0 0.0 0.00 0.00 0.00 55 1012.9
20260905172040 34 232 0.0 0.0 0.00 0.00 0.00 58 1013.0
20260905171518 34 263 0.0 1.6 0.00 0.00 0.00 61 1013.0
20260905171028 34 225 0.0 4.8 0.00 0.00 0.00 55 1013.2
20260905170530 34 184 0.0 4.8 0.00 0.00 0.00 56 1013.2
20260905170019 34 195 0.0 3.2 0.00 0.00 0.00 55 1013.3
20260905165517 33 222 0.0 0.0 0.00 0.00 0.00 57 1013.3
20260905165025 33 231 0.0 0.0 0.00 0.00 0.00 60 1013.5
20260905164526 33 265 0.0 0.0 0.00 0.00 0.00 59 1013.6
20260905164011 33 124 0.0 0.0 0.00 0.00 0.00 61 1013.7
20260905163511 33 115 0.0 0.0 0.00 0.00 0.00 63 1013.8
20260905163021 32 159 0.0 0.0 0.00 0.00 0.00 63 1013.8
20260905162529 32 201 0.0 0.0 0.00 0.00 0.00 64 1013.8
20260905162011 32 207 0.0 0.0 0.00 0.00 0.00 63 1013.8
20260905161521 32 213 0.0 0.0 0.00 0.00 0.00 63 1013.8
20260905161023 32 200 0.0 0.0 0.00 0.00 0.00 63 1013.8
20260905160531 32 200 0.0 0.0 0.00 0.00 0.00 65 1013.9
20260905160013 32 200 0.0 0.0 0.00 0.00 0.00 65 1014.0
20260905155519 32 194 0.0 1.6 0.00 0.00 0.00 66 1014.0
20260905155021 32 180 0.0 1.6 0.00 0.00 0.00 66 1014.1
20260905154529 31 230 0.0 3.2 0.00 0.00 0.00 67 1014.1
20260905154011 31 235 0.0 6.4 0.00 0.00 0.00 67 1014.1
20260905153519 31 355 0.0 6.4 0.00 0.00 0.00 68 1014.1
20260905153020 31 321 0.0 6.4 0.00 0.00 0.00 71 1014.2
20260905152512 31 250 0.0 6.4 0.00 0.00 0.00 70 1014.2
20260905152013 30 275 0.0 0.0 0.00 0.00 0.00 71 1014.1
20260905151521 30 241 0.0 3.2 0.00 0.00 0.00 71 1014.1
20260905151028 30 213 0.0 4.8 0.00 0.00 0.00 71 1014.0
20260905150526 30 232 0.0 4.8 0.00 0.00 0.00 72 1014.1
20260905150035 30 230 0.0 0.0 0.00 0.00 0.00 73 1014.1
20260905145516 30 277 0.0 0.0 0.00 0.00 0.00 73 1014.0
20260905145025 30 201 0.0 0.0 0.00 0.00 0.00 74 1014.1
20260905144525 29 163 0.0 0.0 0.00 0.00 0.00 74 1014.1
20260905144013 29 236 0.0 0.0 0.00 0.00 0.00 75 1014.1
20260905143514 29 255 0.0 0.0 0.00 0.00 0.00 75 1014.2
20260905143024 28 211 0.0 0.0 0.00 0.00 0.00 75 1014.2
20260905142531 28 234 0.0 0.0 0.00 0.00 0.00 76 1014.3
20260905142011 28 211 0.0 0.0 0.00 0.00 0.00 77 1014.2
20260905141512 28 242 0.0 0.0 0.00 0.00 0.00 77 1014.3
20260905141021 28 234 0.0 0.0 0.00 0.00 0.00 78 1014.3
20260905140529 28 226 0.0 0.0 0.00 0.00 0.00 78 1014.4
20260905140030 27 215 0.0 0.0 0.00 0.00 0.00 79 1014.4
20260905135517 27 220 0.0 0.0 0.00 0.00 0.00 80 1014.4
20260905135018 27 223 0.0 0.0 0.00 0.00 0.00 81 1014.6
20260905134527 27 223 0.0 0.0 0.00 0.00 0.00 81 1014.5
20260905134027 27 234 0.0 0.0 0.00 0.00 0.00 83 1014.5
20260905133517 26 263 0.0 0.0 0.00 0.00 0.00 83 1014.6
20260905133019 26 236 0.0 0.0 0.00 0.00 0.00 83 1014.6
20260905132528 26 233 0.0 0.0 0.00 0.00 0.00 85 1014.6
20260905132036 26 275 0.0 0.0 0.00 0.00 0.00 84 1014.6
20260905131518 26 226 0.0 0.0 0.00 0.00 0.00 84 1014.6
20260905131021 25 219 0.0 0.0 0.00 0.00 0.00 85 1014.7
20260905130510 25 221 0.0 0.0 0.00 0.00 0.00 86 1014.6
20260905130013 25 242 0.0 0.0 0.00 0.00 0.00 86 1014.6
20260905125521 25 245 0.0 0.0 0.00 0.00 0.00 87 1014.6
20260905125031 25 252 0.0 0.0 0.00 0.00 0.00 87 1014.6
20260905124512 25 243 0.0 0.0 0.00 0.00 0.00 88 1014.5
20260905124014 25 243 0.0 0.0 0.00 0.00 0.00 88 1014.5
20260905123524 24 242 0.0 0.0 0.00 0.00 0.00 89 1014.4
20260905123034 24 242 0.0 0.0 0.00 0.00 0.00 89 1014.3
20260905122514 24 230 0.0 0.0 0.00 0.00 0.00 90 1014.4
20260905122022 24 230 0.0 0.0 0.00 0.00 0.00 90 1014.4
20260905121525 23 227 0.0 0.0 0.00 0.00 0.00 90 1014.4
20260905121015 23 227 0.0 0.0 0.00 0.00 0.00 90 1014.4
20260905120516 23 227 0.0 0.0 0.00 0.00 0.00 90 1014.3
20260905120026 23 227 0.0 0.0 0.00 0.00 0.00 90 1014.4
20260905115528 23 227 0.0 0.0 0.00 0.00 0.00 90 1014.3
20260905115015 23 227 0.0 0.0 0.00 0.00 0.00 90 1014.2
20260905114516 23 227 0.0 0.0 0.00 0.00 0.00 90 1014.2
20260905114025 23 219 0.0 0.0 0.00 0.00 0.00 90 1014.1
20260905113535 23 219 0.0 0.0 0.00 0.00 0.00 90 1014.0
20260905113018 23 217 0.0 0.0 0.00 0.00 0.00 90 1014.0
20260905112528 23 217 0.0 0.0 0.00 0.00 0.00 90 1013.9
20260905112026 23 217 0.0 0.0 0.00 0.00 0.00 90 1013.8
20260905111514 23 217 0.0 0.0 0.00 0.00 0.00 90 1013.8
20260905111022 23 217 0.0 0.0 0.00 0.00 0.00 90 1013.7
20260905110531 23 217 0.0 0.0 0.00 0.00 0.00 89 1013.6
20260905110013 23 217 0.0 0.0 0.00 0.00 0.00 89 1013.5
20260905105521 23 217 0.0 0.0 0.00 0.00 0.00 89 1013.5
20260905105023 23 217 0.0 0.0 0.00 0.00 0.00 89 1013.4
20260905104532 23 217 0.0 0.0 0.00 0.00 0.00 89 1013.3
20260905104013 23 252 0.0 0.0 0.00 0.00 0.00 89 1013.2
20260905103521 23 252 0.0 0.0 0.00 0.00 0.00 89 1013.2
20260905103023 23 252 0.0 0.0 0.00 0.00 0.00 88 1013.4
20260905102511 23 252 0.0 0.0 0.00 0.00 0.00 88 1013.3
20260905102012 23 252 0.0 0.0 0.00 0.00 0.00 88 1013.2
20260905101521 23 252 0.0 0.0 0.00 0.00 0.00 88 1013.2
20260905101030 23 252 0.0 0.0 0.00 0.00 0.00 88 1013.2
20260905100513 23 252 0.0 0.0 0.00 0.00 0.00 87 1013.2
20260905100016 23 252 0.0 0.0 0.00 0.00 0.00 88 1013.1
20260905095026 23 252 0.0 0.0 0.00 0.00 0.00 87 1013.1
20260905094019 23 252 0.0 0.0 0.00 0.00 0.00 87 1013.0
20260905093521 23 252 0.0 0.0 0.00 0.00 0.00 87 1013.1
20260905093026 23 252 0.0 0.0 0.00 0.00 0.00 87 1013.0
20260905092516 23 243 0.0 0.0 0.00 0.00 0.00 87 1012.9
20260905092021 23 243 0.0 0.0 0.00 0.00 0.00 87 1013.0
20260905091529 23 225 0.0 0.0 0.00 0.00 0.00 87 1013.0
20260905091030 23 215 0.0 0.0 0.00 0.00 0.00 87 1013.0
20260905090520 24 214 0.0 0.0 0.00 0.00 0.00 87 1013.1
20260905090026 24 214 0.0 0.0 0.00 0.00 0.00 87 1013.1
20260905085533 24 214 0.0 0.0 0.00 0.00 0.00 87 1013.1
20260905085015 24 214 0.0 0.0 0.00 0.00 0.00 87 1013.2
20260905084524 24 214 0.0 0.0 0.00 0.00 0.00 87 1013.2
20260905084024 24 214 0.0 0.0 0.00 0.00 0.00 86 1013.3
20260905083533 24 214 0.0 0.0 0.00 0.00 0.00 86 1013.4
20260905083017 24 214 0.0 0.0 0.00 0.00 0.00 86 1013.4
20260905082526 24 214 0.0 0.0 0.00 0.00 0.00 86 1013.4
20260905082029 24 214 0.0 0.0 0.00 0.00 0.00 86 1013.4
20260905081512 24 214 0.0 0.0 0.00 0.00 0.00 85 1013.4
20260905081021 24 214 0.0 0.0 0.00 0.00 0.00 85 1013.4
20260905075512 24 214 0.0 0.0 0.00 0.00 0.00 85 1013.7
20260905075016 24 214 0.0 0.0 0.00 0.00 0.00 85 1013.8
20260905074524 24 214 0.0 0.0 0.00 0.00 0.00 85 1013.8
20260905074027 24 214 0.0 0.0 0.00 0.00 0.00 85 1013.8
20260905073516 24 215 0.0 0.0 0.00 0.00 0.00 85 1013.7
20260905073022 24 214 0.0 0.0 0.00 0.00 0.00 85 1013.8
20260905072529 24 214 0.0 0.0 0.00 0.00 0.00 85 1013.9
20260905072012 24 214 0.0 0.0 0.00 0.00 0.00 85 1013.9
20260905071520 24 214 0.0 0.0 0.00 0.00 0.00 85 1014.0
20260905071022 24 214 0.0 0.0 0.00 0.00 0.00 84 1014.1
20260905070515 25 214 0.0 0.0 0.00 0.00 0.00 84 1014.1
20260905070019 25 214 0.0 0.0 0.00 0.00 0.00 84 1014.0
20260905065527 25 214 0.0 0.0 0.00 0.00 0.00 84 1014.0
20260905065029 25 214 0.0 0.0 0.00 0.00 0.00 84 1014.1
20260905064517 25 214 0.0 0.0 0.00 0.00 0.00 84 1014.1
20260905064018 25 214 0.0 0.0 0.00 0.00 0.00 84 1014.3
20260905063527 25 214 0.0 0.0 0.00 0.00 0.00 84 1014.3
20260905061530 25 214 0.0 0.0 0.00 0.00 0.00 84 1014.4
20260905061030 25 214 0.0 0.0 0.00 0.00 0.00 84 1014.5
20260905060512 25 214 0.0 0.0 0.00 0.00 0.00 84 1014.5
20260905060022 25 214 0.0 0.0 0.00 0.00 0.00 83 1014.5
20260905055532 25 214 0.0 0.0 0.00 0.00 0.00 83 1014.6
20260905055014 25 214 0.0 0.0 0.00 0.00 0.00 83 1014.6
20260905054515 25 214 0.0 0.0 0.00 0.00 0.00 83 1014.7
20260905054025 25 214 0.0 0.0 0.00 0.00 0.00 83 1014.6
20260905053535 25 214 0.0 0.0 0.00 0.00 0.00 83 1014.7
20260905053018 26 214 0.0 0.0 0.00 0.00 0.00 82 1014.8
20260905052520 26 214 0.0 0.0 0.00 0.00 0.00 82 1014.7
20260905052030 26 214 0.0 0.0 0.00 0.00 0.00 81 1014.7
20260905051513 26 214 0.0 0.0 0.00 0.00 0.00 81 1014.7
20260905051023 26 214 0.0 0.0 0.00 0.00 0.00 81 1014.6
20260905050525 26 214 0.0 0.0 0.00 0.00 0.00 81 1014.7
20260905050015 26 214 0.0 0.0 0.00 0.00 0.00 80 1014.8
20260905045516 26 214 0.0 0.0 0.00 0.00 0.00 80 1014.7
20260905045025 26 214 0.0 0.0 0.00 0.00 0.00 80 1014.7
20260905044526 26 214 0.0 0.0 0.00 0.00 0.00 79 1014.6